Radiation Dose at Monitoring Post of Fukushima Daini Nuclear Power Station
Date,Time,MP-1(microSv/h),MP-2(microSv/h),MP-3(microSv/h),MP-4(microSv/h),MP-5(microSv/h),MP-6(microSv/h),MP-7(microSv/h),Wind Direction,Wind Velocity(m/s),Rain
2015/09/16,00:00,0.484,0.281,0.502,0.465,0.454,0.225,0.198,-,CALM,No
2015/09/16,00:10,0.480,0.280,0.505,0.465,0.455,0.227,0.196,-,CALM,No
2015/09/16,00:20,0.481,0.281,0.502,0.466,0.451,0.226,0.196,west,0.5,No
2015/09/16,00:30,0.482,0.279,0.506,0.464,0.455,0.226,0.196,-,CALM,No
2015/09/16,00:40,0.481,0.281,0.503,0.467,0.451,0.226,0.197,-,CALM,No
2015/09/16,00:50,0.482,0.280,0.506,0.463,0.455,0.227,0.196,-,CALM,No
2015/09/16,01:00,0.480,0.282,0.504,0.466,0.449,0.226,0.195,north-northwest,0.7,No
2015/09/16,01:10,0.482,0.280,0.504,0.464,0.453,0.226,0.195,north,0.7,No
2015/09/16,01:20,0.480,0.280,0.506,0.465,0.451,0.226,0.195,-,CALM,No
2015/09/16,01:30,0.484,0.279,0.505,0.462,0.453,0.224,0.197,-,CALM,No
2015/09/16,01:40,0.480,0.280,0.503,0.465,0.449,0.226,0.195,-,CALM,No
2015/09/16,01:50,0.484,0.278,0.503,0.464,0.455,0.226,0.196,-,CALM,No
2015/09/16,02:00,0.478,0.281,0.503,0.466,0.451,0.226,0.195,-,CALM,No
2015/09/16,02:10,0.485,0.279,0.502,0.463,0.455,0.225,0.196,-,CALM,No
2015/09/16,02:20,0.477,0.281,0.507,0.466,0.451,0.226,0.195,-,CALM,No
2015/09/16,02:30,0.484,0.278,0.500,0.463,0.451,0.225,0.196,north,0.7,No
2015/09/16,02:40,0.478,0.281,0.505,0.466,0.453,0.227,0.195,-,CALM,No
2015/09/16,02:50,0.483,0.280,0.500,0.462,0.452,0.225,0.196,-,CALM,No
2015/09/16,03:00,0.477,0.281,0.508,0.466,0.450,0.226,0.195,north-northwest,0.6,No
2015/09/16,03:10,0.483,0.278,0.501,0.462,0.455,0.224,0.195,-,CALM,No
2015/09/16,03:20,0.480,0.280,0.507,0.467,0.449,0.226,0.195,-,CALM,No
2015/09/16,03:30,0.481,0.280,0.502,0.462,0.455,0.226,0.195,-,CALM,No
2015/09/16,03:40,0.480,0.281,0.504,0.466,0.449,0.226,0.197,-,CALM,No
2015/09/16,03:50,0.479,0.278,0.502,0.463,0.454,0.224,0.195,-,CALM,No
2015/09/16,04:00,0.481,0.281,0.504,0.463,0.449,0.226,0.196,-,CALM,No
2015/09/16,04:10,0.478,0.280,0.505,0.463,0.452,0.224,0.194,-,CALM,No
2015/09/16,04:20,0.483,0.281,0.503,0.463,0.450,0.226,0.196,-,CALM,No
2015/09/16,04:30,0.478,0.280,0.504,0.465,0.454,0.226,0.195,-,CALM,No
2015/09/16,04:40,0.484,0.281,0.504,0.461,0.452,0.227,0.196,north,1.1,No
2015/09/16,04:50,0.480,0.279,0.506,0.466,0.454,0.226,0.196,north,1.3,No
2015/09/16,05:00,0.483,0.281,0.503,0.463,0.452,0.226,0.195,north,1.1,No
2015/09/16,05:10,0.479,0.279,0.506,0.465,0.452,0.225,0.196,north,1.1,No
2015/09/16,05:20,0.483,0.281,0.502,0.463,0.452,0.225,0.195,north-northwest,0.8,No
2015/09/16,05:30,0.479,0.280,0.507,0.467,0.452,0.225,0.195,north-northwest,1.0,No
2015/09/16,05:40,0.480,0.281,0.501,0.462,0.453,0.226,0.194,northwest,0.7,No
2015/09/16,05:50,0.482,0.279,0.507,0.466,0.453,0.225,0.197,north-northwest,0.6,No
2015/09/16,06:00,0.479,0.281,0.503,0.462,0.452,0.227,0.195,north,1.2,No
2015/09/16,06:10,0.482,0.279,0.507,0.466,0.454,0.224,0.196,north-northwest,0.6,No
2015/09/16,06:20,0.480,0.281,0.504,0.463,0.451,0.226,0.195,north,1.9,No
2015/09/16,06:30,0.484,0.279,0.504,0.466,0.450,0.225,0.196,north,1.1,No
2015/09/16,06:40,0.476,0.280,0.506,0.460,0.455,0.225,0.195,north,1.0,No
2015/09/16,06:50,0.482,0.278,0.501,0.466,0.447,0.225,0.196,north,1.1,No
2015/09/16,07:00,0.477,0.280,0.506,0.462,0.454,0.226,0.194,north,1.4,No
2015/09/16,07:10,0.482,0.279,0.502,0.463,0.449,0.225,0.194,north-northwest,1.2,No
2015/09/16,07:20,0.481,0.280,0.505,0.464,0.452,0.225,0.195,north-northwest,1.8,No
2015/09/16,07:30,0.479,0.281,0.502,0.462,0.451,0.225,0.195,north,1.7,No
2015/09/16,07:40,0.482,0.280,0.502,0.466,0.448,0.225,0.194,north-northwest,1.1,No
2015/09/16,07:50,0.479,0.282,0.504,0.463,0.455,0.225,0.194,north,1.0,No
2015/09/16,08:00,0.482,0.279,0.500,0.456,0.452,0.224,0.194,-,CALM,No
2015/09/16,08:10,0.480,0.278,0.506,0.462,0.448,0.226,0.194,north,1.4,No
2015/09/16,08:20,0.476,0.281,0.502,0.465,0.455,0.224,0.196,east-northeast,1.4,No
2015/09/16,08:30,0.483,0.279,0.501,0.459,0.451,0.224,0.195,northeast,1.2,No
2015/09/16,08:40,0.481,0.276,0.506,0.459,0.448,0.225,0.194,north-northeast,1.0,No
2015/09/16,08:50,0.476,0.280,0.503,0.467,0.448,0.224,0.194,northeast,1.2,No
2015/09/16,09:00,0.483,0.281,0.499,0.463,0.453,0.223,0.196,northeast,1.9,No
2015/09/16,09:10,0.481,0.279,0.504,0.459,0.451,0.225,0.196,east-northeast,1.5,No
2015/09/16,09:20,0.476,0.277,0.503,0.459,0.446,0.225,0.195,east-northeast,2.1,No
2015/09/16,09:30,0.480,0.279,0.498,0.466,0.450,0.224,0.195,east-northeast,1.4,No
2015/09/16,09:40,0.482,0.281,0.506,0.466,0.455,0.225,0.197,northeast,1.3,No
2015/09/16,09:50,0.479,0.280,0.503,0.461,0.453,0.225,0.196,northeast,1.7,No
2015/09/16,10:00,0.477,0.278,0.501,0.458,0.449,0.225,0.195,east,1.4,No
2015/09/16,10:10,0.478,0.277,0.499,0.456,0.450,0.225,0.195,east,1.4,No
2015/09/16,10:20,0.483,0.280,0.507,0.465,0.447,0.224,0.195,east-northeast,1.4,No
2015/09/16,10:30,0.481,0.281,0.504,0.465,0.450,0.225,0.196,east-northeast,1.6,No
2015/09/16,10:40,0.476,0.279,0.499,0.462,0.455,0.226,0.196,east-northeast,1.7,No
2015/09/16,10:50,0.482,0.280,0.502,0.460,0.454,0.227,0.196,east-southeast,1.8,No
2015/09/16,11:00,0.484,0.278,0.504,0.459,0.452,0.226,0.196,east,1.8,No
2015/09/16,11:10,0.481,0.278,0.504,0.463,0.449,0.225,0.194,east-northeast,1.9,No
2015/09/16,11:20,0.475,0.281,0.500,0.469,0.447,0.224,0.194,east,1.8,No
2015/09/16,11:30,0.479,0.281,0.497,0.467,0.449,0.226,0.198,east,1.6,No
2015/09/16,11:40,0.483,0.280,0.498,0.463,0.455,0.226,0.196,east-northeast,1.9,No
2015/09/16,11:50,0.483,0.280,0.504,0.463,0.455,0.227,0.195,east,1.8,No
2015/09/16,12:00,0.477,0.279,0.506,0.460,0.455,0.226,0.196,east,1.4,No
2015/09/16,12:10,0.477,0.277,0.503,0.461,0.452,0.226,0.195,southeast,1.6,No
2015/09/16,12:20,0.484,0.281,0.502,0.461,0.451,0.226,0.195,east-southeast,1.5,No
2015/09/16,12:30,0.484,0.281,0.500,0.465,0.450,0.226,0.195,southeast,1.6,No
2015/09/16,12:40,0.481,0.279,0.499,0.467,0.449,0.225,0.196,southeast,1.7,No
2015/09/16,12:50,0.479,0.280,0.499,0.464,0.451,0.226,0.194,south-southeast,1.1,No
2015/09/16,13:00,0.477,0.280,0.499,0.465,0.450,0.226,0.195,southeast,2.0,No
2015/09/16,13:10,0.479,0.279,0.501,0.463,0.450,0.226,0.195,southeast,2.2,No
2015/09/16,13:20,0.484,0.279,0.501,0.463,0.452,0.227,0.195,east-southeast,2.5,No
2015/09/16,13:30,0.484,0.280,0.502,0.462,0.450,0.227,0.196,southeast,2.3,No
2015/09/16,13:40,0.481,0.278,0.502,0.464,0.452,0.227,0.195,south-southeast,2.2,No
2015/09/16,13:50,0.480,0.279,0.504,0.462,0.452,0.226,0.195,southeast,1.4,No
2015/09/16,14:00,0.479,0.278,0.503,0.462,0.453,0.227,0.196,southeast,2.2,No
2015/09/16,14:10,0.483,0.279,0.504,0.466,0.452,0.228,0.198,south-southeast,1.9,No
2015/09/16,14:20,0.485,0.283,0.505,0.469,0.452,0.227,0.196,southeast,2.2,No
2015/09/16,14:30,0.481,0.284,0.503,0.467,0.451,0.227,0.197,south-southeast,2.3,No
2015/09/16,14:40,0.478,0.282,0.508,0.464,0.452,0.225,0.196,south-southeast,2.5,No
2015/09/16,14:50,0.484,0.280,0.511,0.461,0.453,0.227,0.196,south-southeast,2.8,No
2015/09/16,15:00,0.488,0.279,0.507,0.470,0.461,0.227,0.198,south-southeast,2.2,No
2015/09/16,15:10,0.482,0.282,0.504,0.468,0.458,0.228,0.197,south-southeast,2.8,No
2015/09/16,15:20,0.480,0.281,0.512,0.467,0.454,0.227,0.196,south-southeast,2.7,No
2015/09/16,15:30,0.485,0.280,0.507,0.464,0.453,0.226,0.198,south-southeast,3.1,No
2015/09/16,15:40,0.485,0.282,0.504,0.473,0.457,0.227,0.198,south-southeast,2.6,No
2015/09/16,15:50,0.479,0.282,0.509,0.469,0.454,0.228,0.196,south,3.1,No
2015/09/16,16:00,0.484,0.281,0.508,0.464,0.452,0.225,0.196,south-southeast,2.3,No
2015/09/16,16:10,0.485,0.282,0.503,0.468,0.460,0.227,0.198,south-southeast,2.4,No
2015/09/16,16:20,0.480,0.285,0.510,0.468,0.455,0.227,0.196,south-southeast,2.7,No
2015/09/16,16:30,0.484,0.279,0.509,0.462,0.451,0.226,0.198,south-southeast,3.1,No
2015/09/16,16:40,0.485,0.283,0.505,0.469,0.457,0.227,0.197,south,3.0,No
2015/09/16,16:50,0.480,0.283,0.510,0.468,0.455,0.226,0.196,south,2.9,No
2015/09/16,17:00,0.487,0.281,0.508,0.463,0.454,0.227,0.198,south,3.0,No
2015/09/16,17:10,0.485,0.285,0.504,0.470,0.459,0.226,0.196,south,2.8,No
2015/09/16,17:20,0.481,0.282,0.510,0.468,0.451,0.226,0.196,south,3.1,No
2015/09/16,17:30,0.486,0.282,0.505,0.466,0.455,0.227,0.198,south,3.4,No
2015/09/16,17:40,0.482,0.282,0.506,0.469,0.456,0.226,0.197,south,2.5,No
2015/09/16,17:50,0.482,0.281,0.510,0.465,0.452,0.227,0.198,south,2.3,No
2015/09/16,18:00,0.486,0.282,0.503,0.469,0.456,0.226,0.198,south,2.3,No
2015/09/16,18:10,0.480,0.281,0.510,0.468,0.454,0.227,0.196,south,2.9,No
2015/09/16,18:20,0.486,0.282,0.506,0.462,0.453,0.226,0.197,south,2.8,No
2015/09/16,18:30,0.486,0.281,0.505,0.471,0.457,0.227,0.197,south,3.0,No
2015/09/16,18:40,0.481,0.281,0.510,0.465,0.451,0.228,0.198,south,2.8,No
2015/09/16,18:50,0.485,0.283,0.504,0.469,0.456,0.227,0.197,south,2.3,No
2015/09/16,19:00,0.481,0.280,0.510,0.469,0.452,0.227,0.198,south,2.4,No
2015/09/16,19:10,0.484,0.283,0.507,0.465,0.455,0.227,0.197,south,2.6,No
2015/09/16,19:20,0.483,0.280,0.504,0.468,0.456,0.228,0.197,south,1.9,No
2015/09/16,19:30,0.483,0.283,0.509,0.465,0.452,0.226,0.197,south,1.8,No
2015/09/16,19:40,0.485,0.281,0.503,0.470,0.457,0.226,0.197,south,2.1,No
2015/09/16,19:50,0.480,0.282,0.509,0.467,0.452,0.225,0.197,south,1.9,No
2015/09/16,20:00,0.487,0.283,0.506,0.465,0.457,0.227,0.197,south,2.3,No
2015/09/16,20:10,0.482,0.281,0.508,0.468,0.455,0.229,0.198,south,2.5,No
2015/09/16,20:20,0.485,0.282,0.508,0.463,0.453,0.226,0.197,south,2.2,No
2015/09/16,20:30,0.483,0.281,0.506,0.469,0.457,0.227,0.197,south,2.6,No
2015/09/16,20:40,0.479,0.282,0.509,0.463,0.453,0.226,0.197,south,2.1,No
2015/09/16,20:50,0.486,0.280,0.504,0.467,0.457,0.227,0.197,south,2.0,No
2015/09/16,21:00,0.484,0.282,0.509,0.466,0.452,0.227,0.196,south,2.2,No
2015/09/16,21:10,0.485,0.282,0.507,0.469,0.456,0.228,0.197,south,2.4,No
2015/09/16,21:20,0.484,0.282,0.506,0.468,0.454,0.227,0.197,south,3.1,No
2015/09/16,21:30,0.483,0.281,0.510,0.467,0.453,0.227,0.198,south,3.6,No
2015/09/16,21:40,0.485,0.282,0.504,0.472,0.456,0.226,0.197,south,3.8,No
2015/09/16,21:50,0.481,0.282,0.510,0.464,0.450,0.226,0.198,south,3.6,No
2015/09/16,22:00,0.486,0.281,0.505,0.470,0.457,0.228,0.197,south,3.8,No
2015/09/16,22:10,0.481,0.282,0.508,0.467,0.452,0.226,0.197,south,3.7,No
2015/09/16,22:20,0.487,0.282,0.506,0.468,0.457,0.228,0.197,south,3.1,No
2015/09/16,22:30,0.484,0.282,0.505,0.467,0.452,0.227,0.198,south,2.8,No
2015/09/16,22:40,0.482,0.281,0.508,0.466,0.456,0.228,0.197,south,3.0,No
2015/09/16,22:50,0.486,0.283,0.504,0.469,0.455,0.226,0.197,south,3.0,No
2015/09/16,23:00,0.479,0.281,0.510,0.464,0.452,0.227,0.198,south-southeast,2.8,No
2015/09/16,23:10,0.484,0.283,0.504,0.468,0.456,0.227,0.198,south,2.6,No
2015/09/16,23:20,0.481,0.282,0.508,0.464,0.450,0.226,0.198,south,2.4,No
2015/09/16,23:30,0.484,0.282,0.504,0.469,0.457,0.229,0.197,south,2.4,No
2015/09/16,23:40,0.483,0.281,0.507,0.466,0.453,0.226,0.198,south,2.2,No
2015/09/16,23:50,0.483,0.283,0.508,0.467,0.456,0.227,0.198,south,1.6,No
